Location: Pasadena-CA
(34.1440°N, 118.1100°W)
Time: 09:56:34
(UTC-08:00)

Hubble Space Telescope - Visible Passes

Search period start: 19 January 2022 00:00
Search period end: 29 January 2022 00:00
Orbit: 534 x 538 km, 28.5° (Epoch: 18 January)

Date Brightness Start Highest point End Pass type
(mag) Time Alt. Az. Time Alt. Az. Time Alt. Az.
19 Jan 2.4 05:09:33 22° SSW 05:09:33 22° SSW 05:12:46 10° SE visible
20 Jan 2.8 04:59:00 18° S 04:59:00 18° S 05:01:09 10° SSE visible
21 Jan 3.3 04:48:29 13° S 04:48:29 13° S 04:49:26 10° SSE visible
28 Jan 3.0 18:50:57 10° S 18:52:46 13° SSE 18:52:54 13° SSE visible
